Terminal Aerodrome Forecast
Issued by NWS Binghamton, NY

Home | Current Version | Previous Version | Text Only | Print | Product List | Glossary On
Versions: 1 2 3 4 5 6 7 8 9 10 11 12 13 14 15 16 17 18 19 20 21 22 23 24 25 26 27 28
119
FTUS41 KBGM 050856 AAA
TAFAVP
TAF AMD
KAVP 050856Z 0509/0606 07002KT P6SM OVC012
      TEMPO 0509/0512 4SM BR OVC009
     FM051400 02005KT P6SM BKN025
     FM051600 02005KT P6SM BKN035
     FM060000 02003KT P6SM BKN040=

USA.gov is the U.S. government's official web portal to all federal, state and local government web resources and services.